Time,TemperatureF,DewpointF,PressureIn,WindDirection,WindDirectionDegrees,WindSpeedMPH,WindSpeedGustMPH,Humidity,HourlyPrecipIn,Conditions,Clouds,dailyrainin,SolarRadiationWatts/m^2,SoftwareType,DateUTC
2013-09-09 00:14:00,63.7,62.0,29.98,East,92,0.0,1.0,93,0.00,,,0.00,0,weatherlink.com 1.10,2013-09-09 05:14:00,
2013-09-09 00:29:00,63.8,62.0,29.98,East,92,0.0,0.0,94,0.01,,,0.01,0,weatherlink.com 1.10,2013-09-09 05:29:00,
2013-09-09 00:44:00,63.7,62.0,29.98,East,92,0.0,1.0,94,0.01,,,0.01,0,weatherlink.com 1.10,2013-09-09 05:44:00,
2013-09-09 00:59:00,63.6,62.0,29.98,East,92,0.0,0.0,94,0.01,,,0.01,0,weatherlink.com 1.10,2013-09-09 05:59:00,
2013-09-09 01:14:00,63.6,62.0,29.97,East,92,0.0,0.0,95,0.01,,,0.01,0,weatherlink.com 1.10,2013-09-09 06:14:00,
2013-09-09 01:29:00,63.5,62.0,29.94,East,92,0.0,1.0,95,0.00,,,0.01,0,weatherlink.com 1.10,2013-09-09 06:29:00,
2013-09-09 01:44:00,63.4,62.0,29.95,East,92,0.0,0.0,95,0.00,,,0.01,0,weatherlink.com 1.10,2013-09-09 06:44:00,
2013-09-09 01:59:00,63.4,62.0,29.95,East,93,0.0,1.0,95,0.00,,,0.01,0,weatherlink.com 1.10,2013-09-09 06:59:00,
2013-09-09 02:14:00,63.4,62.0,29.95,East,92,0.0,0.0,95,0.00,,,0.01,0,weatherlink.com 1.10,2013-09-09 07:14:00,
2013-09-09 02:29:00,63.3,62.0,29.94,East,92,0.0,0.0,95,0.00,,,0.01,0,weatherlink.com 1.10,2013-09-09 07:29:00,
2013-09-09 02:44:00,63.3,62.0,29.94,East,92,0.0,0.0,95,0.00,,,0.01,0,weatherlink.com 1.10,2013-09-09 07:44:00,
2013-09-09 02:59:00,63.4,62.0,29.93,East,92,0.0,0.0,96,0.00,,,0.01,0,weatherlink.com 1.10,2013-09-09 07:59:00,
2013-09-09 03:14:00,63.6,63.0,29.93,East,92,0.0,0.0,96,0.00,,,0.01,0,weatherlink.com 1.10,2013-09-09 08:14:00,
2013-09-09 03:29:00,63.8,63.0,29.93,East,92,0.0,0.0,96,0.00,,,0.01,0,weatherlink.com 1.10,2013-09-09 08:29:00,
2013-09-09 03:44:00,63.8,63.0,29.93,East,92,0.0,0.0,96,0.00,,,0.01,0,weatherlink.com 1.10,2013-09-09 08:44:00,
2013-09-09 03:59:00,63.8,63.0,29.92,East,92,0.0,0.0,96,0.00,,,0.01,0,weatherlink.com 1.10,2013-09-09 08:59:00,
2013-09-09 04:15:00,63.9,63.0,29.91,East,92,0.0,0.0,96,0.00,,,0.01,0,weatherlink.com 1.10,2013-09-09 09:15:00,
2013-09-09 04:30:00,64.1,63.0,29.91,East,92,0.0,0.0,96,0.00,,,0.01,0,weatherlink.com 1.10,2013-09-09 09:30:00,
2013-09-09 04:45:00,64.2,63.0,29.91,East,92,0.0,0.0,96,0.00,,,0.01,0,weatherlink.com 1.10,2013-09-09 09:45:00,
2013-09-09 05:00:00,64.5,63.0,29.90,East,92,0.0,0.0,96,0.00,,,0.01,0,weatherlink.com 1.10,2013-09-09 10:00:00,
2013-09-09 05:15:00,64.6,64.0,29.90,East,92,0.0,0.0,97,0.00,,,0.01,0,weatherlink.com 1.10,2013-09-09 10:15:00,
2013-09-09 05:30:00,64.8,64.0,29.90,East,92,0.0,0.0,96,0.00,,,0.01,0,weatherlink.com 1.10,2013-09-09 10:30:00,
2013-09-09 05:45:00,64.8,64.0,29.90,East,92,0.0,0.0,96,0.00,,,0.01,0,weatherlink.com 1.10,2013-09-09 10:45:00,
2013-09-09 06:00:00,64.9,64.0,29.89,East,92,0.0,0.0,97,0.00,,,0.01,0,weatherlink.com 1.10,2013-09-09 11:00:00,
2013-09-09 06:15:00,65.1,64.0,29.90,East,92,0.0,0.0,97,0.00,,,0.01,0,weatherlink.com 1.10,2013-09-09 11:15:00,
2013-09-09 06:30:00,65.2,64.0,29.90,East,92,0.0,0.0,97,0.00,,,0.01,0,weatherlink.com 1.10,2013-09-09 11:30:00,
2013-09-09 06:45:00,65.0,64.0,29.90,East,92,0.0,0.0,96,0.00,,,0.01,5,weatherlink.com 1.10,2013-09-09 11:45:00,
2013-09-09 07:00:00,64.7,64.0,29.91,East,92,0.0,0.0,96,0.00,,,0.01,11,weatherlink.com 1.10,2013-09-09 12:00:00,
2013-09-09 07:15:00,64.6,64.0,29.91,East,92,0.0,0.0,97,0.00,,,0.01,25,weatherlink.com 1.10,2013-09-09 12:15:00,
2013-09-09 07:30:00,64.9,64.0,29.91,East,92,0.0,0.0,97,0.00,,,0.01,54,weatherlink.com 1.10,2013-09-09 12:30:00,
2013-09-09 07:45:00,66.2,66.0,29.91,East,93,0.0,0.0,98,0.00,,,0.01,79,weatherlink.com 1.10,2013-09-09 12:45:00,
2013-09-09 08:00:00,67.2,66.0,29.91,East,93,0.0,0.0,97,0.00,,,0.01,121,weatherlink.com 1.10,2013-09-09 13:00:00,
2013-09-09 08:15:00,68.3,67.0,29.90,East,93,0.0,0.0,96,0.00,,,0.01,160,weatherlink.com 1.10,2013-09-09 13:15:00,
2013-09-09 08:30:00,69.4,68.0,29.90,East,94,0.0,2.0,94,0.00,,,0.01,91,weatherlink.com 1.10,2013-09-09 13:30:00,
2013-09-09 08:45:00,70.3,68.0,29.89,East,94,0.0,1.0,93,0.00,,,0.01,230,weatherlink.com 1.10,2013-09-09 13:45:00,
2013-09-09 09:00:00,71.4,69.0,29.89,ESE,115,0.0,1.0,92,0.00,,,0.01,207,weatherlink.com 1.10,2013-09-09 14:00:00,
2013-09-09 09:15:00,72.4,69.0,29.89,South,180,0.0,2.0,90,0.00,,,0.01,197,weatherlink.com 1.10,2013-09-09 14:15:00,
2013-09-09 09:30:00,73.2,70.0,29.89,South,180,0.0,1.0,89,0.00,,,0.01,376,weatherlink.com 1.10,2013-09-09 14:30:00,
2013-09-09 09:45:00,73.8,70.0,29.89,South,180,0.0,1.0,88,0.00,,,0.01,234,weatherlink.com 1.10,2013-09-09 14:45:00,
2013-09-09 10:00:00,74.7,71.0,29.89,South,180,0.0,1.0,88,0.00,,,0.01,244,weatherlink.com 1.10,2013-09-09 15:00:00,
2013-09-09 10:15:00,75.8,71.0,29.89,South,177,0.0,2.0,86,0.00,,,0.01,211,weatherlink.com 1.10,2013-09-09 15:15:00,
2013-09-09 10:31:00,76.7,72.0,29.88,South,177,0.0,2.0,86,0.00,,,0.01,329,weatherlink.com 1.10,2013-09-09 15:31:00,
2013-09-09 10:46:00,78.0,72.0,29.87,South,175,0.0,3.0,82,0.00,,,0.01,466,weatherlink.com 1.10,2013-09-09 15:46:00,
2013-09-09 11:01:00,78.9,73.0,29.87,South,171,1.0,2.0,82,0.00,,,0.01,554,weatherlink.com 1.10,2013-09-09 16:01:00,
2013-09-09 11:16:00,80.5,73.0,29.87,South,173,0.0,3.0,79,0.00,,,0.01,582,weatherlink.com 1.10,2013-09-09 16:16:00,
2013-09-09 11:31:00,81.9,74.0,29.87,South,177,1.0,2.0,77,0.00,,,0.01,615,weatherlink.com 1.10,2013-09-09 16:31:00,
2013-09-09 11:46:00,83.1,75.0,29.87,SW,225,1.0,1.0,76,0.00,,,0.01,615,weatherlink.com 1.10,2013-09-09 16:46:00,
2013-09-09 12:01:00,84.2,75.0,29.86,SW,217,1.0,2.0,74,0.00,,,0.01,628,weatherlink.com 1.10,2013-09-09 17:01:00,
2013-09-09 12:16:00,84.7,75.0,29.86,SSW,211,0.0,2.0,73,0.00,,,0.01,628,weatherlink.com 1.10,2013-09-09 17:16:00,
2013-09-09 12:31:00,84.6,75.0,29.86,South,176,0.0,2.0,73,0.00,,,0.01,647,weatherlink.com 1.10,2013-09-09 17:31:00,
2013-09-09 12:46:00,84.9,75.0,29.85,South,176,0.0,2.0,73,0.00,,,0.01,257,weatherlink.com 1.10,2013-09-09 17:46:00,
2013-09-09 13:01:00,85.5,76.0,29.84,SSW,211,1.0,2.0,72,0.00,,,0.01,246,weatherlink.com 1.10,2013-09-09 18:01:00,
2013-09-09 13:16:00,86.0,76.0,29.84,SSW,211,0.0,2.0,72,0.00,,,0.01,322,weatherlink.com 1.10,2013-09-09 18:16:00,
2013-09-09 13:31:00,86.3,76.0,29.83,SE,136,0.0,4.0,71,0.00,,,0.01,309,weatherlink.com 1.10,2013-09-09 18:31:00,
2013-09-09 13:46:00,86.2,76.0,29.82,SSE,155,0.0,2.0,72,0.00,,,0.01,640,weatherlink.com 1.10,2013-09-09 18:46:00,
2013-09-09 14:01:00,86.9,76.0,29.82,East,96,1.0,3.0,71,0.00,,,0.01,483,weatherlink.com 1.10,2013-09-09 19:01:00,
2013-09-09 14:16:00,87.1,77.0,29.81,SE,138,0.0,3.0,72,0.00,,,0.01,671,weatherlink.com 1.10,2013-09-09 19:16:00,
2013-09-09 14:31:00,87.9,77.0,29.80,South,180,0.0,2.0,71,0.00,,,0.01,689,weatherlink.com 1.10,2013-09-09 19:31:00,
2013-09-09 14:46:00,88.1,77.0,29.79,SSW,210,0.0,3.0,70,0.00,,,0.01,193,weatherlink.com 1.10,2013-09-09 19:46:00,
2013-09-09 15:01:00,87.2,77.0,29.79,SE,141,1.0,2.0,71,0.00,,,0.01,473,weatherlink.com 1.10,2013-09-09 20:01:00,
2013-09-09 15:16:00,88.0,78.0,29.78,SSW,203,0.0,2.0,71,0.00,,,0.01,577,weatherlink.com 1.10,2013-09-09 20:16:00,
2013-09-09 15:31:00,88.6,78.0,29.77,South,175,0.0,5.0,70,0.00,,,0.01,533,weatherlink.com 1.10,2013-09-09 20:31:00,
2013-09-09 15:47:00,88.8,77.0,29.77,SE,134,0.0,4.0,69,0.00,,,0.01,506,weatherlink.com 1.10,2013-09-09 20:47:00,
2013-09-09 16:02:00,88.8,77.0,29.76,SSE,148,0.0,3.0,69,0.00,,,0.01,490,weatherlink.com 1.10,2013-09-09 21:02:00,
2013-09-09 16:17:00,89.3,77.0,29.76,SSE,168,1.0,3.0,68,0.00,,,0.01,443,weatherlink.com 1.10,2013-09-09 21:17:00,
2013-09-09 16:32:00,89.3,77.0,29.76,South,174,1.0,3.0,67,0.00,,,0.01,408,weatherlink.com 1.10,2013-09-09 21:32:00,
2013-09-09 16:47:00,89.1,76.0,29.75,South,182,1.0,3.0,66,0.00,,,0.01,366,weatherlink.com 1.10,2013-09-09 21:47:00,
2013-09-09 17:02:00,88.6,76.0,29.76,SSE,158,0.0,3.0,67,0.00,,,0.01,330,weatherlink.com 1.10,2013-09-09 22:02:00,
2013-09-09 17:17:00,88.4,77.0,29.75,South,178,2.0,3.0,69,0.00,,,0.01,290,weatherlink.com 1.10,2013-09-09 22:17:00,
2013-09-09 17:32:00,88.1,76.0,29.75,SSE,165,2.0,3.0,68,0.00,,,0.01,174,weatherlink.com 1.10,2013-09-09 22:32:00,
2013-09-09 17:47:00,88.1,77.0,29.75,SSE,161,2.0,2.0,69,0.00,,,0.01,193,weatherlink.com 1.10,2013-09-09 22:47:00,
2013-09-09 18:02:00,87.8,76.0,29.75,SSE,157,0.0,2.0,69,0.00,,,0.01,123,weatherlink.com 1.10,2013-09-09 23:02:00,
2013-09-09 18:17:00,87.4,77.0,29.75,South,171,0.0,2.0,71,0.00,,,0.01,91,weatherlink.com 1.10,2013-09-09 23:17:00,
2013-09-09 18:32:00,86.6,77.0,29.75,South,172,0.0,2.0,72,0.00,,,0.01,26,weatherlink.com 1.10,2013-09-09 23:32:00,
2013-09-09 18:47:00,85.9,77.0,29.75,South,172,0.0,1.0,74,0.00,,,0.01,26,weatherlink.com 1.10,2013-09-09 23:47:00,
2013-09-09 19:02:00,85.1,76.0,29.75,South,189,1.0,2.0,75,0.00,,,0.01,7,weatherlink.com 1.10,2013-09-10 00:02:00,
2013-09-09 19:17:00,84.4,77.0,29.75,SSW,193,1.0,2.0,77,0.00,,,0.01,0,weatherlink.com 1.10,2013-09-10 00:17:00,
2013-09-09 19:32:00,83.8,76.0,29.75,South,177,2.0,2.0,78,0.00,,,0.01,0,weatherlink.com 1.10,2013-09-10 00:32:00,
2013-09-09 19:47:00,83.2,76.0,29.75,SSW,195,0.0,1.0,78,0.00,,,0.01,0,weatherlink.com 1.10,2013-09-10 00:47:00,
2013-09-09 20:02:00,82.8,76.0,29.76,SSW,195,0.0,1.0,79,0.00,,,0.01,0,weatherlink.com 1.10,2013-09-10 01:02:00,
2013-09-09 20:17:00,82.6,75.0,29.76,SSW,199,0.0,2.0,78,0.00,,,0.01,0,weatherlink.com 1.10,2013-09-10 01:17:00,
2013-09-09 20:32:00,82.6,75.0,29.76,SSW,198,0.0,2.0,78,0.00,,,0.01,0,weatherlink.com 1.10,2013-09-10 01:32:00,
2013-09-09 20:47:00,82.9,75.0,29.76,SSW,203,0.0,2.0,77,0.00,,,0.01,0,weatherlink.com 1.10,2013-09-10 01:47:00,
2013-09-09 21:02:00,82.8,75.0,29.77,South,185,0.0,2.0,77,0.00,,,0.01,0,weatherlink.com 1.10,2013-09-10 02:02:00,
2013-09-09 21:17:00,82.4,75.0,29.77,South,182,0.0,2.0,77,0.00,,,0.01,0,weatherlink.com 1.10,2013-09-10 02:17:00,
2013-09-09 21:32:00,81.7,75.0,29.77,South,180,0.0,1.0,79,0.00,,,0.01,0,weatherlink.com 1.10,2013-09-10 02:32:00,
2013-09-09 21:47:00,80.8,74.0,29.77,SSW,196,0.0,1.0,80,0.00,,,0.01,0,weatherlink.com 1.10,2013-09-10 02:47:00,
2013-09-09 22:02:00,80.4,74.0,29.77,South,189,0.0,2.0,80,0.00,,,0.01,0,weatherlink.com 1.10,2013-09-10 03:02:00,
2013-09-09 22:17:00,80.4,73.0,29.77,SSW,194,0.0,3.0,79,0.00,,,0.01,0,weatherlink.com 1.10,2013-09-10 03:17:00,
2013-09-09 22:32:00,80.2,73.0,29.77,South,174,1.0,2.0,78,0.00,,,0.01,0,weatherlink.com 1.10,2013-09-10 03:32:00,
2013-09-09 22:47:00,79.8,73.0,29.77,South,182,0.0,1.0,79,0.00,,,0.01,0,weatherlink.com 1.10,2013-09-10 03:47:00,
2013-09-09 23:02:00,79.3,72.0,29.78,South,182,0.0,1.0,79,0.00,,,0.01,0,weatherlink.com 1.10,2013-09-10 04:02:00,
2013-09-09 23:17:00,78.7,72.0,29.78,South,182,1.0,1.0,80,0.00,,,0.01,0,weatherlink.com 1.10,2013-09-10 04:17:00,
2013-09-09 23:32:00,78.5,72.0,29.78,South,184,1.0,1.0,80,0.00,,,0.01,0,weatherlink.com 1.10,2013-09-10 04:32:00,
2013-09-09 23:47:00,78.5,72.0,29.78,South,185,1.0,2.0,80,0.00,,,0.01,0,weatherlink.com 1.10,2013-09-10 04:47:00,